Location: Rounton
(54.4000°N, 1.3500°W)
Time: 22:19:47
(UTC+00:00)

Vanguard 3 - Pass Details

Date: 05 December 2021
Orbit: 508 x 3260 km, 33.3° (Epoch: 17 January)

Event Time Altitude Azimuth Distance (km) Brightness Sun altitude
Rises 09:43:08 0° 269° (W) 6,738 11.5 8.0°
Reaches altitude 10° 09:52:46 10° 242° (WSW) 5,015 11.2 8.7°
Maximum altitude 09:56:06 11° 228° (SW) 4,611 11.2 9.0°
Drops below altitude 10° 09:59:05 10° 214° (SW) 4,408 11.4 9.2°
Sets 10:05:37 0° 183° (S) 4,667 12.2 9.6°
